Location: Dana
(41.8364°N, 106.7042°W)
Time: 04:44:33
(UTC+00:00)

Vanguard 3 - All Passes

Search period start: 10 May 2026 00:00
Search period end: 20 May 2026 00:00
Orbit: 507 x 3204 km, 33.3° (Epoch: 8 May)

Date Brightness Start Highest point End Pass type
(mag) Time Alt. Az. Time Alt. Az. Time Alt. Az.
10 May - 00:40:16 10° WSW 00:57:31 60° S 01:08:07 10° ESE daylight
10 May - 02:57:03 10° W 03:09:51 41° SSW 03:17:33 10° SE visible
10 May - 05:16:24 10° WSW 05:19:34 12° SW 05:22:17 10° SSW visible
10 May - 18:53:33 10° S 19:05:37 21° SE 19:17:37 10° E daylight
10 May - 21:01:28 10° SW 21:19:08 44° SSE 21:34:01 10° E daylight
10 May - 23:15:01 10° WSW 23:33:41 61° S 23:46:27 10° E daylight
11 May - 01:31:14 10° W 01:47:21 55° SSW 01:57:03 10° ESE daylight
11 May - 03:48:33 10° W 03:58:35 27° SW 04:05:12 10° SSE visible
11 May - 19:39:33 10° SSW 19:55:04 33° SE 20:09:59 10° E daylight
11 May - 21:50:36 10° SW 22:09:20 55° SSE 22:24:05 10° E daylight
12 May - 00:05:37 10° WSW 00:23:54 62° S 00:35:46 10° ESE daylight
12 May - 02:22:25 10° W 02:36:45 44° SSW 02:45:31 10° SE visible
12 May - 04:41:33 10° WSW 04:46:49 14° SW 04:51:01 10° SSW visible
12 May - 18:19:52 10° S 18:31:36 21° SE 18:43:52 10° E daylight
12 May - 20:27:27 10° SW 20:44:54 45° SSE 21:00:51 10° E daylight
12 May - 22:40:34 10° WSW 22:59:42 62° S 23:13:47 10° E daylight
13 May - 00:56:34 10° W 01:13:54 57° SSW 01:24:47 10° ESE daylight
13 May - 03:13:58 10° W 03:25:36 30° SW 03:33:15 10° SSE visible
13 May - 19:05:52 10° SSW 19:20:53 33° SE 19:36:24 10° E daylight
13 May - 21:16:30 10° SW 21:35:06 56° SSE 21:51:04 10° E daylight
13 May - 23:31:05 10° WSW 23:50:04 63° S 00:03:14 10° ESE daylight
14 May - 01:47:43 10° W 02:03:26 46° SSW 02:13:21 10° SE daylight
14 May - 04:06:45 10° W 04:13:55 17° SW 04:19:23 10° SSW visible
14 May - 17:46:30 10° S 17:57:36 21° SE 18:09:49 10° E daylight
14 May - 19:53:42 10° SW 20:10:37 46° SSE 20:27:26 10° E daylight
14 May - 22:06:20 10° WSW 22:25:32 63° S 22:40:56 10° E daylight
15 May - 00:21:56 10° W 00:40:12 58° SSW 00:52:22 10° ESE daylight
15 May - 02:39:16 10° W 02:52:26 32° SW 03:01:10 10° SSE visible
15 May - 18:32:27 10° SSW 18:46:42 33° SE 19:02:32 10° E daylight
15 May - 20:42:38 10° SW 21:00:46 57° SSE 21:17:48 10° E daylight
15 May - 22:56:43 10° WSW 23:16:00 64° S 23:30:31 10° ESE daylight
16 May - 01:13:02 10° W 01:29:55 48° SSW 01:41:01 10° SE daylight
16 May - 03:31:56 10° W 03:40:50 19° SW 03:47:31 10° S visible
16 May - 17:13:24 10° S 17:23:40 20° SE 17:35:30 10° E daylight
16 May - 19:20:12 10° SW 19:36:18 46° SSE 19:53:45 10° E daylight
16 May - 21:32:20 10° WSW 21:51:14 64° S 22:07:50 10° E daylight
16 May - 23:47:26 10° W 00:06:18 60° SSW 00:19:46 10° ESE daylight
17 May - 02:04:32 10° W 02:19:02 34° SW 02:28:55 10° SSE daylight
17 May - 17:59:16 10° SSW 18:12:35 33° SE 18:28:25 10° E daylight
17 May - 20:09:01 10° SW 20:26:22 57° SSE 20:44:18 10° E daylight
17 May - 22:22:33 10° WSW 22:41:48 65° S 22:57:35 10° ESE daylight
18 May - 00:38:26 10° W 00:56:09 49° SSW 01:08:31 10° SE daylight
18 May - 02:57:05 10° W 03:07:35 21° SW 03:15:26 10° S visible
18 May - 16:40:35 10° S 16:49:51 19° SE 17:00:56 10° E daylight
18 May - 18:46:56 10° SW 19:02:02 46° SSE 19:19:48 10° E daylight
18 May - 20:58:34 10° WSW 21:16:50 64° S 21:34:30 10° E daylight
18 May - 23:13:07 10° W 23:32:11 60° SSW 23:46:58 10° ESE daylight
19 May - 01:29:50 10° W 01:45:26 36° SW 01:56:30 10° SSE daylight
19 May - 17:26:20 10° SSW 17:38:35 32° SE 17:54:04 10° E daylight
19 May - 19:35:39 10° SW 19:52:00 57° SSE 20:10:32 10° E daylight
19 May - 21:48:37 10° WSW 22:07:27 66° S 22:24:25 10° ESE daylight
